This is the latest recevied weather packets stored in our database for station/object KV4OP. If no packets are shown the sender has not sent any weather packets the latest 10 day(s).
| Time | Temp. | Humidity | Pressure | Rain* | Wind** | Luminosity | Snow |
|---|---|---|---|---|---|---|---|
| 1778173531 | 32.78° C | 44% | 1015.5 hPa | 0 mm | - | - | - |
| 1778173231 | 32.78° C | 46% | 1015.4 hPa | 0 mm | - | - | - |
| 1778172931 | 33.33° C | 46% | 1015.5 hPa | 0 mm | - | - | - |
| 1778172629 | 32.78° C | 45% | 1015.6 hPa | 0 mm | - | - | - |
| 1778172328 | 32.78° C | 46% | 1015.5 hPa | 0 mm | - | - | - |
| 1778172028 | 32.78° C | 48% | 1015.7 hPa | 0 mm | - | - | - |
| 1778171728 | 32.22° C | 47% | 1015.7 hPa | 0 mm | - | - | - |
| 1778171425 | 32.22° C | 49% | 1015.8 hPa | 0 mm | - | - | - |
| 1778171124 | 32.22° C | 49% | 1015.9 hPa | 0 mm | - | - | - |
| 1778170824 | 31.67° C | 52% | 1016 hPa | 0 mm | - | - | - |
| 1778170524 | 31.67° C | 50% | 1016.1 hPa | 0 mm | - | - | - |
| 1778170222 | 32.22° C | 51% | 1016 hPa | 0 mm | - | - | - |
| 1778169922 | 31.67° C | 52% | 1016.1 hPa | 0 mm | - | - | - |
| 1778169623 | 31.67° C | 51% | 1016.1 hPa | 0 mm | - | - | - |
| 1778169322 | 31.67° C | 54% | 1016.1 hPa | 0 mm | - | - | - |
| 1778169022 | 31.67° C | 53% | 1016.1 hPa | 0 mm | - | - | - |
| 1778168721 | 31.11° C | 59% | 1016.3 hPa | 0 mm | - | - | - |
| 1778168419 | 31.11° C | 58% | 1016.2 hPa | 0 mm | - | - | - |
| 1778168118 | 30.56° C | 56% | 1016.3 hPa | 0 mm | - | - | - |
| 1778167817 | 30.56° C | 57% | 1016.4 hPa | 0 mm | - | - | - |
| 1778167516 | 31.11° C | 60% | 1016.4 hPa | 0 mm | - | - | - |
| 1778167215 | 30.56° C | 60% | 1016.5 hPa | 0 mm | - | - | - |
| 1778166915 | 30° C | 60% | 1016.6 hPa | 0 mm | - | - | - |
| 1778166614 | 30° C | 60% | 1016.6 hPa | 0 mm | - | - | - |
| 1778166316 | 30.56° C | 60% | 1016.6 hPa | 0 mm | - | - | - |
* Rain latest hour (hover to see other rain measurements)
** Current wind speed in m/s (hover to see current wind gust speed)